Location: Santa Barbara
(34.4500°N, 119.7700°W)
Time: 03:16:33
(UTC-08:00)

Cosmos 1626 Rocket - Visible Passes

Search period start: 16 December 2017 00:00
Search period end: 26 December 2017 00:00
Orbit: 602 x 632 km, 82.5° (Epoch: 16 December)

Date Brightness Start Highest point End Pass type
(mag) Time Alt. Az. Time Alt. Az. Time Alt. Az.
18 Dec 6.3 05:46:46 10° NNE 05:49:48 18° ENE 05:52:50 10° ESE visible
19 Dec 5.3 06:02:45 10° NNE 06:06:44 34° E 06:10:43 10° SE visible
19 Dec 5.9 18:30:26 10° SE 18:30:36 11° SE 18:30:36 11° SE visible
20 Dec 3.9 06:19:14 10° N 06:23:35 70° E 06:27:55 10° SSE visible
20 Dec 5.0 18:46:30 10° S 18:48:23 24° SSE 18:48:23 24° SSE visible
21 Dec 4.3 19:03:07 10° S 19:06:10 45° SSW 19:06:10 45° SSW visible
22 Dec 6.2 05:16:08 10° NNE 05:19:12 18° ENE 05:22:15 10° ESE visible
22 Dec 5.3 17:44:44 10° ESE 17:46:47 13° E 17:46:47 13° E visible
22 Dec 4.9 19:20:14 10° SSW 19:23:59 37° W 19:23:59 37° W visible
23 Dec 5.2 05:32:08 10° NNE 05:36:07 35° E 05:40:08 10° SE visible
23 Dec 4.5 17:59:50 10° SE 18:03:25 26° E 18:04:35 23° ENE visible
23 Dec 5.9 19:38:00 10° WSW 19:41:10 20° WNW 19:41:46 19° WNW visible
24 Dec 3.8 05:48:36 10° N 05:52:58 70° E 05:57:20 10° SSE visible
24 Dec 3.6 18:15:54 10° S 18:20:04 51° E 18:22:21 25° NNE visible
24 Dec 6.7 19:57:43 10° WNW 19:58:11 10° WNW 19:58:39 10° WNW visible
25 Dec 3.6 06:05:25 10° NNW 06:09:43 57° W 06:14:01 10° S visible
25 Dec 3.6 18:32:30 10° S 18:36:49 77° W 18:40:06 17° N visible
